Skip Page Navigation
NASA JPL Caltech
NASA Logo - Jet Propulsion Laboratory + View the NASA Portal
+ Center for Near-Earth Object Studies
JPL Home Earth Solar System Stars & Galaxies Technology
JPL Solar System Dynamics
BODIES ORBITS EPHEMERIDES TOOLS PHYSICAL DATA DISCOVERY FAQ SITE MAP
JPL Small-Body Database Browser
Search: [ help ]  
277943 (2006 QG1)
Classification: Main-belt Asteroid          SPK-ID: 2277943
Ephemeris | Orbit Diagram | Orbital Elements | Mission Design | Physical Parameters | Discovery Circumstances | Close-Approach Data ]

[ hide orbit diagram ]

For accurate long-term ephemerides, please instead use our Horizons system.This orbit viewer was implemented using two-body methods, and hence should not be used for determining accurate long-term trajectories (over several years or decades) or planetary encounter circumstances.


[ revert to old Java-based viewer ]

Orbital Elements at Epoch 2459000.5 (2020-May-31.0) TDB
Reference: JPL 11 (heliocentric ecliptic J2000)
 Element Value Uncertainty (1-sigma)   Units 
e .2584225986236955 5.6763e-08  
a 2.806196620297527 2.7103e-08 au
q 2.081011997431209 1.6284e-07 au
i 7.502781239616195 7.7764e-06 deg
node 17.78902062113118 4.3186e-05 deg
peri 237.2330130698911 4.5777e-05 deg
M 18.02334023516396 1.2751e-05 deg
tp 2458914.537635432113
(2020-Mar-06.03763543)
6.0356e-05 TDB
period 1717.020865203553
4.70
2.4875e-05
6.81e-08
d
yr
n .2096654777443966 3.0375e-09 deg/d
Q 3.531381243163846 3.4107e-08 au
  Orbit Determination Parameters
   # obs. used (total)      215  
   data-arc span      5530 days (15.14 yr)  
   first obs. used      2005-03-02  
   last obs. used      2020-04-22  
   planetary ephem.      DE431  
   SB-pert. ephem.      SB431-N16  
   condition code      0  
   norm. resid. RMS      .60674  
   source      ORB  
   producer      Otto Matic  
   solution date      2020-May-21 16:30:26  

Additional Information
 Earth MOID = 1.0782 au 
 Jupiter MOID = 1.5965 au 
 T_jup = 3.261 
[ show covariance matrix ]

Ephemeris | Orbit Diagram | Orbital Elements | Mission Design | Physical Parameters | Discovery Circumstances | Close-Approach Data ]

Physical Parameter Table
Parameter Symbol Value Units Sigma Reference Notes
absolute magnitude H 16.1   n/a MPO455062  

277943 (2006 QG1)          Discovered 2006-Aug-16 by Siding Spring Survey at Siding Spring
Reference: 20110517/Numbers.arcLast Updated: 2011-05-20

[ show close-approach data ]
Ephemeris | Orbit Diagram | Orbital Elements | Mission Design | Physical Parameters | Discovery Circumstances | Close-Approach Data ]
ABOUT SSD CREDITS/AWARDS PRIVACY/COPYRIGHT GLOSSARY LINKS
FirstGov 2020-Aug-09 00:41 UT
(server date/time)  
NASA Home Page
Site Manager:   Ryan S. Park
Webmaster  Alan B. Chamberlin